Temperature
18 18 18 18 18 18 18 18 18 18 18 18 18 18 18 18 18 18 18 18 18 18 18 18 17 17 17 17 18 17 17 17 17 17 17 17 18 18 17 17 17 17 17
18 18 18 18 18 18 18 18 18 18 18 18 18 18 18 18 17 17 18 18 17 17 17 17 17 17 17 17 17 17 17 17 17 17 17 17 17 17 17 17 17 17 17
18 18 18 18 18 18 18 18 18 18 18 18 18 18 18 18 17 17 17 18 18 17 17 17 17 17 17 17 17 17 17 17 17 17 17 17 17 17 17 17 17 17 17
18 18 18 18 18 18 18 18 18 18 18 18 18 18 18 18 17 17 17 17 18 17 17 17 17 17 17 17 17 17 17 17 17 17 17 17 17 17 17 17 17 17 17
18 18 18 18 18 18 18 18 18 18 18 18 18 18 18 17 17 17 17 17 17 17 17 17 17 17 17 17 17 17 17 17 17 17 17 17 17 17 17 17 17 17 17
18 18 18 18 18 18 18 18 18 18 18 18 18 18 18 18 18 17 17 17 17 17 17 17 17 17 17 17 17 17 17 17 17 17 17 17 17 17 17 17 17 17 17
18 18 18 18 18 18 18 18 18 18 18 18 18 18 18 18 18 18 17 17 17 17 17 17 17 17 17 17 17 17 17 17 17 17 17 17 17 17 17 17 17 17 17
18 18 18 18 18 18 18 18 18 18 18 18 18 18 17 17 17 17 17 17 17 17 17 17 17 17 17 17 17 17 17 17 17 17 17 17 17 17 17 17 17 17 17
18 18 18 18 18 18 18 18 18 18 18 18 18 18 17 17 17 17 17 17 17 17 17 17 17 17 17 17 17 17 17 17 17 17 17 17 17 17 17 17 17 17 17
18 18 18 18 18 18 18 18 18 18 18 18 18 18 17 17 17 17 17 17 17 17 17 17 17 17 17 17 17 17 17 17 17 17 17 17 17 17 17 17 17 17 17
19 18 18 18 18 18 18 18 18 18 18 18 17 17 17 17 17 17 17 17 17 17 17 17 17 17 17 17 17 17 17 17 17 17 17 17 17 17 17 17 17 17 17
19 19 18 18 18 18 18 18 18 18 18 18 18 17 17 17 17 17 17 17 17 17 17 17 17 17 17 17 17 17 17 17 17 17 17 17 17 17 17 17 17 17 17
19 19 18 18 18 18 18 18 18 18 18 18 18 17 17 17 17 17 17 17 17 17 17 17 17 17 17 17 17 17 17 17 17 17 17 17 17 17 17 17 17 17 17
19 19 19 18 18 18 18 18 18 18 18 17 17 17 17 17 17 17 17 17 17 17 17 17 17 17 17 17 17 17 17 17 17 17 17 17 17 17 17 17 17 17 17
19 19 18 18 18 18 18 18 18 18 18 17 17 17 17 17 17 17 17 17 17 17 17 17 17 17 17 17 17 17 17 17 17 17 17 17 17 17 17 17 17 17 17
19 19 18 18 18 18 18 18 18 18 18 18 18 18 17 17 17 17 17 17 17 17 17 17 17 17 17 17 17 17 17 17 17 17 17 17 17 17 17 17 17 17 17
19 19 18 18 18 18 18 18 17 17 17 17 17 17 17 17 17 17 17 17 17 17 17 17 17 17 17 17 17 17 17 17 17 17 17 17 17 17 17 17 17 17 17
19 19 18 18 18 18 18 18 17 17 17 17 17 17 17 17 17 17 17 17 17 17 17 17 17 17 17 17 17 17 17 17 17 17 17 17 17 17 17 17 17 16 16
19 19 18 18 18 18 18 17 17 17 17 17 17 17 17 17 17 17 17 17 17 17 17 17 17 17 17 17 17 17 17 17 17 17 17 17 17 17 17 17 16 16 16
19 19 19 18 18 18 18 17 17 17 17 17 17 17 17 17 17 17 17 17 17 17 17 17 17 17 17 17 17 17 17 17 17 17 17 17 17 17 16 16 16 16 16
19 19 19 18 18 18 18 18 18 18 18 17 17 17 17 17 17 17 17 17 17 17 17 17 17 17 17 17 17 17 17 17 17 17 17 17 17 16 16 16 16 16 16
20 19 19 19 18 18 18 18 18 18 17 17 17 17 17 17 17 17 17 17 17 17 17 17 17 17 17 17 17 17 16 16 16 16 16 16 16 16 16 16 16 16 16
20 20 19 19 19 18 18 18 18 18 17 17 17 17 17 17 17 17 17 17 17 17 17 17 17 17 17 17 17 17 16 16 16 16 16 16 16 16 16 16 16 16 16
20 20 20 19 19 19 18 18 18 18 18 18 18 17 17 17 17 17 17 17 17 17 17 17 17 17 17 17 17 16 16 16 16 15 16 16 16 16 16 16 15 15 15
21 21 20 20 19 19 19 18 18 18 18 18 18 17 17 17 17 17 17 17 17 17 17 17 17 17 17 17 17 16 16 16 16 16 15 15 15 15 15 15 15 15 15
21 21 21 20 20 19 19 19 19 18 18 18 18 18 18 18 17 17 17 17 17 17 17 17 17 17 17 17 16 16 16 16 16 16 15 15 15 15 15 15 15 15 15
Wind_Speed
1 1 2 5 6 7 8 9 10 10 11 12 12 13 13 13 14 15 16 17 17 17 18 19 19 20 20 19 19 20 20 20 20 20 19 18 18 18 18 18 17 15 17
2 1 3 5 6 8 8 9 9 10 11 12 13 13 13 14 14 15 16 17 17 17 18 18 18 19 19 19 19 20 19 19 19 18 17 16 17 17 17 16 15 14 16
3 2 4 5 7 7 8 9 9 10 12 12 12 13 13 14 14 15 15 16 17 17 17 18 18 18 18 18 19 19 18 18 17 17 15 13 14 15 15 15 15 15 15
3 2 3 5 6 7 7 8 9 10 11 11 12 13 13 14 14 15 15 16 16 17 17 17 17 17 17 17 17 17 17 17 16 15 12 11 11 13 13 14 14 14 14
3 2 3 5 6 6 7 8 8 9 11 12 12 12 13 14 14 15 15 15 16 16 16 16 15 15 15 15 15 16 16 16 15 13 11 10 10 12 12 13 13 13 13
2 2 3 5 6 6 7 8 8 9 10 11 12 12 13 13 13 14 15 15 15 15 15 15 15 14 14 14 14 14 14 14 13 11 10 9 9 11 12 12 12 12 12
3 2 3 5 6 6 7 8 8 9 10 11 12 12 12 13 13 13 13 14 14 14 13 13 13 13 12 12 12 13 13 13 11 10 9 8 8 10 11 12 11 12 11
3 2 3 5 5 6 7 8 8 9 10 10 11 12 12 11 12 12 13 13 13 12 12 12 11 11 10 10 11 12 12 11 10 9 8 7 8 10 11 11 11 11 11
3 3 2 3 4 5 6 7 8 8 9 10 10 10 11 11 11 11 11 12 12 12 11 10 10 9 9 9 10 11 10 10 9 8 8 7 9 10 10 10 10 10 10
2 2 2 3 3 3 4 6 7 8 8 9 9 9 9 9 9 10 9 10 10 10 10 9 8 8 8 8 9 10 9 9 8 7 6 7 9 9 9 9 10 10 10
2 1 1 1 2 2 2 4 5 6 6 6 6 7 7 6 6 7 8 9 9 9 8 8 7 7 7 7 7 8 7 6 6 6 6 7 8 9 9 9 10 10 10
3 2 1 1 1 1 2 3 2 3 4 4 4 5 5 5 4 4 6 7 7 7 7 7 6 6 6 5 5 6 5 6 5 5 5 7 8 9 9 9 9 9 9
3 2 2 2 1 1 1 2 2 2 3 3 3 4 4 4 3 3 3 4 5 5 5 5 5 4 4 4 4 4 4 4 4 4 5 7 8 9 9 8 8 8 8
3 3 3 3 2 2 2 1 1 1 1 1 1 2 3 2 2 2 2 3 3 3 3 3 3 3 3 3 3 3 3 3 3 3 4 6 7 8 9 8 8 8 8
4 4 3 3 3 2 2 1 1 1 1 1 1 2 3 2 1 2 1 2 2 2 2 2 2 2 1 1 1 3 4 4 3 3 4 6 7 7 8 8 8 8 8
4 4 3 3 3 2 2 1 1 1 1 1 1 2 3 3 3 2 1 1 1 2 2 2 2 1 1 1 1 2 3 4 3 3 4 5 7 8 8 8 9 8 8
5 4 4 4 3 3 2 2 1 2 2 1 1 2 3 4 4 3 2 1 1 2 2 2 2 2 1 1 1 1 2 3 3 3 3 4 4 6 7 8 9 9 9
4 4 4 4 4 3 2 2 1 2 2 1 1 1 3 4 4 4 2 2 2 3 2 2 2 1 1 1 1 1 1 1 2 3 3 3 3 3 5 7 8 9 9
5 5 4 3 4 4 3 2 2 2 1 0 1 1 2 3 4 4 2 2 3 3 2 2 2 2 2 2 1 1 1 1 1 2 2 3 3 3 4 5 7 7 8
5 5 4 4 4 4 3 2 2 2 1 1 0 1 2 3 4 4 3 3 3 2 2 2 2 2 2 2 2 2 2 1 1 1 2 2 2 3 3 3 4 5 7
5 5 4 4 4 3 2 2 1 0 0 1 0 0 1 3 4 4 2 3 3 2 2 3 3 3 2 2 3 2 3 3 2 1 0 1 1 2 2 2 3 3 3
5 5 5 4 4 4 3 2 2 2 1 0 0 1 0 2 3 3 3 2 3 2 2 3 3 2 1 2 2 2 1 2 2 3 2 1 1 1 1 0 1 1 2
6 7 6 5 4 4 3 3 2 2 2 1 1 1 0 1 2 3 3 3 3 3 3 3 3 4 3 1 1 2 2 1 1 2 2 2 2 2 1 1 1 0 1
8 6 6 5 4 4 4 4 4 3 2 2 1 1 1 1 2 3 3 3 3 2 3 3 3 3 4 2 1 1 1 2 2 0 1 2 2 2 1 1 1 1 1
7 7 6 5 4 4 4 5 4 3 2 1 1 1 1 0 1 2 3 3 3 2 3 3 2 3 3 3 2 2 1 1 1 2 1 0 1 1 1 1 2 2 2
6 6 6 5 4 4 5 5 5 5 4 3 2 1 1 0 0 0 2 2 2 2 3 3 3 3 3 3 2 2 2 2 2 2 2 1 1 1 1 1 2 2 2
Wind_Direction
269 283 111 90 84 80 79 78 78 86 93 96 96 98 99 102 105 106 105 104 106 108 113 117 120 121 122 121 121 120 121 123 123 124 123 123 122 121 119 118 116 115 117
155 166 123 100 90 84 82 80 80 86 94 98 98 99 99 100 103 106 108 108 108 108 110 116 119 121 122 121 121 121 122 123 124 125 123 123 123 122 119 119 120 122 122
102 123 126 108 95 90 87 86 85 90 95 98 100 100 99 101 104 109 110 111 110 108 109 110 113 117 117 119 121 122 122 123 122 119 116 114 119 122 124 125 125 124 124
107 116 125 115 101 93 91 91 91 94 100 101 101 101 101 102 105 112 114 113 110 107 110 115 114 115 116 118 120 122 121 121 119 116 112 113 120 125 127 128 126 125 127
104 118 132 117 105 98 98 96 96 97 102 105 106 106 106 107 106 110 114 115 114 113 113 114 114 115 117 118 122 122 121 122 120 115 113 113 120 130 130 129 128 128 128
105 124 139 120 109 103 100 104 104 105 106 108 110 109 110 109 107 110 114 114 115 117 118 118 118 120 120 121 123 124 124 123 118 115 115 119 126 136 135 133 133 131 129
122 128 135 119 109 105 107 108 107 107 110 110 110 111 111 113 114 114 115 113 113 115 116 118 120 122 122 125 127 127 127 126 121 121 122 127 136 140 139 137 135 135 134
119 105 116 122 115 110 112 111 109 111 112 111 109 110 109 109 111 115 118 116 115 116 117 118 117 121 120 124 131 132 133 132 128 129 129 135 143 145 145 142 142 142 142
97 87 72 89 109 116 116 117 115 113 114 114 110 109 109 110 111 114 118 119 120 122 122 121 121 121 122 121 129 134 135 135 130 133 138 143 149 152 151 151 151 150 148
87 71 63 62 72 84 108 120 119 115 113 114 113 113 110 109 112 114 119 120 123 124 126 124 121 121 121 120 129 135 135 132 133 140 145 154 157 159 158 157 159 158 157
138 59 58 71 74 85 105 120 118 118 114 108 110 112 102 91 95 107 121 125 122 123 124 122 118 115 113 117 128 132 125 128 136 144 155 163 167 169 167 166 169 168 166
195 202 189 152 146 147 132 104 96 98 96 92 93 98 97 95 95 107 118 122 123 122 118 115 110 105 97 99 112 118 120 132 141 156 167 172 175 174 170 172 173 175 173
200 204 204 197 181 162 121 116 100 95 93 90 92 102 102 93 85 81 78 88 94 97 91 90 85 85 93 97 100 115 135 142 155 165 176 176 175 174 173 174 175 176 177
185 211 210 192 183 185 163 133 117 112 113 121 118 116 114 102 89 88 85 86 91 99 94 91 89 83 82 93 115 138 156 158 164 175 186 183 178 180 180 178 178 179 177
190 211 205 187 191 182 153 153 134 144 183 191 171 159 152 146 142 121 113 112 114 119 115 108 97 83 69 77 130 158 170 172 176 184 190 188 187 187 187 185 186 189 189
193 202 189 185 190 171 161 161 167 189 195 189 198 198 184 175 166 150 142 139 147 151 152 138 129 96 74 83 107 158 170 174 177 185 198 201 200 199 198 199 199 201 201
185 185 182 183 165 157 164 176 170 173 160 159 198 201 185 179 171 162 154 169 181 160 141 126 115 110 112 106 107 128 152 168 170 185 193 201 209 211 212 213 212 211 210
165 165 181 177 154 158 158 153 141 140 145 153 151 165 173 178 172 161 160 185 175 146 137 133 123 111 105 103 88 75 104 135 162 173 179 190 201 217 226 224 219 217 218
167 161 161 156 150 157 149 119 104 104 113 118 101 152 168 168 168 164 171 177 157 142 145 154 127 133 132 121 107 68 75 143 167 169 171 188 199 215 230 239 234 229 230
164 157 157 151 147 139 122 97 72 63 55 52 51 191 173 171 168 163 165 164 151 143 137 134 124 116 136 135 94 58 40 47 92 171 199 198 206 209 217 234 249 246 243
159 158 164 163 163 146 128 130 123 154 355 17 336 268 180 179 172 161 159 155 150 160 165 149 133 121 112 116 96 59 36 40 53 38 86 142 184 207 201 216 237 243 249
174 176 178 182 176 172 158 146 145 138 134 147 2 25 160 169 171 168 160 163 159 163 158 148 144 133 142 139 132 111 37 12 29 34 40 61 46 78 89 134 181 208 225
184 188 192 192 187 182 163 128 106 85 61 52 23 348 332 176 178 174 168 165 164 170 179 177 171 164 173 181 147 151 154 201 327 15 38 48 51 54 45 59 71 135 202
197 188 183 184 185 178 163 160 163 166 180 205 196 239 311 182 172 174 174 173 174 176 185 197 183 175 166 178 163 142 161 158 164 13 10 32 43 38 27 31 35 39 32
192 183 179 174 185 180 170 172 169 175 184 173 149 192 297 308 186 182 178 176 179 187 194 195 181 174 173 176 174 163 138 113 157 178 235 331 30 17 18 27 37 32 24
185 181 174 174 192 184 177 177 177 181 180 173 184 205 240 260 285 175 166 171 181 186 194 194 182 179 185 183 182 177 174 174 183 182 207 240 298 336 8 30 29 33 40
Height
1513 1512 1512 1512 1512 1511 1511 1510 1509 1508 1508 1508 1509 1509 1509 1510 1510 1511 1511 1512 1513 1514 1515 1518 1520 1523 1526 1528 1531 1534 1536 1539 1542 1544 1546 1549 1551 1552 1554 1556 1557 1559 1560
1513 1513 1514 1514 1513 1513 1513 1512 1511 1511 1510 1510 1511 1511 1512 1512 1513 1514 1514 1515 1516 1517 1519 1521 1523 1526 1528 1531 1533 1536 1539 1542 1544 1547 1549 1551 1552 1554 1555 1557 1559 1560 1562
1514 1514 1515 1515 1515 1515 1514 1514 1513 1513 1513 1513 1513 1514 1514 1515 1515 1516 1517 1518 1520 1521 1523 1524 1527 1529 1531 1533 1536 1538 1541 1544 1546 1548 1550 1552 1554 1556 1557 1559 1560 1562 1563
1516 1516 1517 1517 1517 1516 1516 1516 1516 1515 1515 1516 1516 1516 1517 1517 1517 1518 1520 1522 1524 1525 1525 1528 1530 1532 1534 1537 1539 1541 1543 1546 1548 1550 1552 1554 1556 1557 1559 1560 1562 1563 1565
1518 1518 1519 1519 1519 1518 1518 1518 1517 1518 1518 1518 1519 1519 1520 1521 1521 1522 1523 1525 1527 1528 1530 1532 1534 1536 1538 1540 1542 1544 1546 1548 1550 1552 1554 1556 1557 1559 1561 1562 1563 1565 1566
1520 1520 1521 1521 1520 1520 1520 1520 1519 1520 1520 1521 1521 1522 1523 1524 1525 1526 1527 1528 1530 1532 1534 1535 1537 1539 1541 1543 1545 1546 1548 1550 1551 1554 1556 1557 1559 1561 1562 1563 1564 1566 1567
1522 1523 1523 1523 1522 1522 1522 1522 1522 1522 1523 1523 1524 1525 1526 1527 1528 1529 1530 1531 1533 1535 1537 1538 1540 1542 1544 1545 1547 1549 1550 1552 1553 1555 1557 1559 1561 1562 1563 1564 1566 1567 1568
1525 1525 1525 1525 1525 1525 1524 1524 1524 1525 1525 1526 1527 1528 1529 1530 1531 1532 1533 1535 1536 1538 1539 1541 1543 1545 1546 1548 1549 1551 1552 1554 1555 1557 1558 1560 1562 1563 1564 1565 1567 1568 1569
1527 1527 1527 1527 1527 1527 1527 1527 1527 1528 1528 1529 1530 1531 1532 1533 1534 1535 1537 1538 1539 1541 1542 1544 1546 1547 1549 1550 1551 1553 1554 1556 1557 1558 1560 1561 1563 1564 1565 1566 1568 1569 1570
1529 1529 1529 1529 1529 1530 1529 1530 1530 1531 1531 1532 1533 1534 1535 1536 1537 1539 1540 1541 1542 1544 1545 1547 1548 1550 1551 1552 1553 1554 1556 1557 1558 1560 1561 1562 1564 1565 1566 1567 1568 1569 1571
1531 1531 1531 1531 1532 1532 1532 1532 1533 1534 1535 1535 1536 1537 1538 1539 1540 1541 1542 1544 1545 1546 1547 1549 1550 1552 1553 1554 1555 1556 1557 1559 1560 1561 1562 1563 1564 1565 1567 1568 1569 1570 1571
1532 1533 1533 1533 1534 1534 1534 1535 1536 1537 1537 1538 1539 1540 1541 1542 1543 1544 1545 1546 1547 1548 1549 1551 1552 1554 1555 1556 1557 1558 1559 1560 1561 1562 1562 1563 1565 1566 1567 1568 1569 1570 1571
1534 1534 1535 1535 1536 1536 1536 1537 1538 1539 1540 1540 1541 1542 1543 1544 1545 1546 1547 1548 1549 1550 1551 1553 1554 1555 1556 1557 1558 1559 1560 1561 1562 1562 1563 1564 1565 1566 1567 1568 1569 1570 1571
1535 1536 1536 1537 1537 1538 1538 1539 1539 1540 1542 1542 1543 1544 1545 1546 1547 1548 1549 1550 1551 1552 1553 1555 1555 1557 1557 1558 1559 1560 1561 1562 1562 1563 1563 1564 1565 1566 1567 1568 1569 1570 1571
1536 1537 1537 1538 1539 1539 1540 1540 1541 1542 1543 1544 1545 1546 1547 1548 1549 1549 1551 1552 1553 1554 1555 1556 1557 1558 1558 1559 1560 1561 1562 1563 1563 1563 1564 1564 1565 1566 1567 1568 1569 1570 1570
1536 1537 1538 1539 1540 1540 1541 1542 1542 1543 1544 1545 1546 1547 1548 1549 1550 1551 1552 1553 1554 1555 1556 1557 1558 1558 1559 1560 1561 1561 1562 1563 1563 1564 1564 1564 1565 1566 1567 1568 1569 1569 1570
1537 1538 1538 1539 1540 1541 1542 1543 1543 1544 1545 1546 1547 1548 1549 1550 1551 1552 1553 1554 1555 1555 1556 1557 1558 1559 1559 1560 1561 1562 1562 1563 1563 1564 1564 1564 1565 1566 1567 1567 1568 1568 1569
1537 1538 1539 1540 1540 1541 1542 1543 1544 1545 1546 1547 1548 1548 1549 1550 1551 1552 1553 1554 1555 1556 1556 1557 1558 1559 1559 1560 1561 1561 1562 1562 1563 1563 1564 1564 1565 1565 1566 1567 1567 1568 1568
1537 1538 1539 1540 1540 1541 1542 1543 1544 1545 1546 1547 1548 1549 1550 1551 1551 1552 1553 1554 1555 1555 1556 1557 1558 1558 1559 1559 1560 1561 1561 1562 1562 1563 1563 1563 1564 1565 1565 1566 1566 1566 1567
1537 1538 1539 1540 1540 1541 1542 1543 1544 1545 1546 1547 1548 1549 1550 1550 1551 1552 1553 1553 1554 1555 1556 1556 1557 1558 1558 1559 1559 1560 1560 1561 1561 1561 1562 1562 1563 1563 1564 1564 1565 1565 1565
1537 1537 1538 1539 1540 1541 1542 1543 1544 1545 1546 1547 1547 1548 1549 1550 1551 1552 1552 1553 1554 1554 1555 1556 1556 1557 1557 1558 1558 1559 1559 1560 1560 1560 1561 1561 1562 1562 1562 1563 1563 1563 1564
1536 1537 1538 1539 1540 1541 1542 1543 1544 1545 1545 1546 1547 1548 1549 1550 1551 1551 1552 1553 1553 1554 1555 1555 1556 1556 1557 1557 1558 1558 1558 1560 1559 1559 1559 1560 1560 1561 1561 1561 1561 1562 1562
1535 1536 1537 1538 1539 1540 1541 1542 1543 1544 1545 1546 1547 1548 1549 1549 1550 1551 1552 1552 1553 1553 1554 1554 1555 1555 1556 1556 1557 1558 1558 1558 1558 1558 1558 1559 1559 1559 1559 1559 1559 1559 1559
1533 1535 1536 1537 1538 1539 1540 1541 1542 1543 1544 1545 1546 1547 1548 1549 1550 1550 1551 1551 1552 1552 1553 1553 1553 1554 1554 1555 1556 1556 1557 1557 1558 1557 1558 1558 1558 1557 1557 1557 1557 1557 1557
1532 1534 1535 1536 1537 1539 1540 1541 1542 1543 1544 1545 1546 1547 1548 1549 1549 1550 1550 1550 1551 1551 1551 1552 1552 1552 1553 1554 1554 1554 1555 1555 1556 1556 1556 1556 1556 1556 1556 1556 1556 1556 1556
1530 1532 1534 1535 1536 1538 1539 1540 1541 1542 1543 1544 1545 1546 1547 1548 1548 1549 1549 1549 1550 1550 1550 1550 1550 1551 1551 1552 1552 1552 1553 1553 1554 1554 1554 1554 1554 1555 1555 1555 1555 1555 1554